Regional Weather Roundup
Issued by NWS

Home | Current Version | Previous Version | Graphics & Text | Print | Product List | Glossary On
Versions: 1 2 3 4 5 6 7 8 9 10 11 12 13 14 15 16 17 18 19 20 21 22 23 24 25 26 27 28 29 30 31 32 33 34 35 36 37 38 39 40 41 42 43 44 45 46 47 48 49 50
000
ASUS45 KBOU 271207
RWRCO

WEATHER ROUNDUP FOR COLORADO
NATIONAL WEATHER SERVICE DENVER/BOULDER CO
600 AM MDT WED MAY 27 2015

NOTE: "FAIR" INDICATES FEW OR NO CLOUDS BELOW 12000 FEET WITH NO
SIGNIFICANT WEATHER AND/OR OBSTRUCTIONS TO VISIBILITY.

COZ001>005-013-030-031-271300-
...NORTHWEST COLORADO...

CITY           SKY/WX    TMP DP  RH WIND       PRES   REMARKS
CRAIG          CLOUDY    47  44  90 SE5       30.16R
HAYDEN         CLOUDY    46  43  87 E5        30.17R
MEEKER         PTCLDY    45  42  89 CALM      30.17R
MOUNT WERNER   NOT AVBL
STEAMBOAT SPGS CLOUDY    44  43  95 E3        30.18S
WALDEN         CLOUDY    41  36  81 S10       30.20R
$$

COZ006>008-011-271300-
...WEST CENTRAL VALLEYS...

CITY           SKY/WX    TMP DP  RH WIND       PRES   REMARKS
GRAND JUNCTION CLEAR     47  46  97 SE5       30.12S
MONTROSE       PTCLDY    44  41  89 NW5       30.19R
EAGLE          MOCLDY    43  43 100 CALM      30.21R
RIFLE          PTCLDY    44  41  89 CALM      30.16R
DELTA          PTCLDY    47  44  89 MISG      30.16S
NUCLA          CLEAR     43  41  93 SE7       30.20F
$$

COZ017>023-064>068-271300-
...SOUTHWEST COLORADO...

CITY           SKY/WX    TMP DP  RH WIND       PRES   REMARKS
DURANGO        PTCLDY    42  40  92 NE5       30.21S
CORTEZ         CLOUDY    41  39  93 E3        30.16S
PAGOSA SPRINGS PTCLDY    40  39  96 CALM      30.27S
TELLURIDE      PTCLDY    39  35  87 SE3       30.33R
WOLF CREEK PAS NOT AVBL
$$

COZ009-010-012-014-032>034-037-058>063-271300-
...CENTRAL COLORADO...

CITY           SKY/WX    TMP DP  RH WIND       PRES   REMARKS
ASPEN          NOT AVBL
BUENA VISTA    MOCLDY    38  34  87 CALM      30.24R
COPPER MTN     CLOUDY    37  30  75 SW14G23   30.38R
BERTHOUD PASS  FAIR      28  21  74 W25       30.37S WCI  14
COTTONWOOD PAS MOCLDY    43  34  70 SW6       30.31R
GUNNISON       MOCLDY    39  36  87 CALM      30.30R
KREMMLING      CLOUDY    43  37  81 CALM      30.21S
LEADVILLE      CLOUDY    36  33  89 CALM      30.28S
SALIDA         MOCLDY    49  36  60 W10G16    30.31R
SUNLIGHT       CLOUDY    36  34  93 CALM      30.35S FOG
WILKERSON PASS CLEAR     34  30  86 SW9       30.37R WCI  26
$$

COZ069>075-271300-
...SAN LUIS VALLEY/SANGRE DE CRISTO MOUNTAINS...

CITY           SKY/WX    TMP DP  RH WIND       PRES   REMARKS
ALAMOSA        MOCLDY    38  36  92 E7        30.25S
LA VETA PASS   CLEAR    N/A N/A N/A MISG      30.34R
SAGUACHE       PTCLDY    41  36  81 NW14      30.28S
$$

COZ035-036-038>040-271300-
...NORTHERN COLORADO FRONT RANGE...

CITY           SKY/WX    TMP DP  RH WIND       PRES   REMARKS
DENVER INTL AP MOCLDY    50  43  77 SW12      30.07R
DMNS CITY PARK   N/A     50  42  74 S3        30.07S
AURORA         PTCLDY    47  42  81 CALM      30.09R
FRONT RANGE AP PTCLDY    50  45  81 MISG      30.08S
ERIE MUNI ARPT PTCLDY    43  42  95 CALM      30.07S
BOULDER MUN AP PTCLDY    46  43  87 CALM      30.07R
CENTENNIAL     PTCLDY    47  40  76 S7        30.10R
BROOMFIELD     CLOUDY    50  41  71 CALM      30.09S
FORT COLLINS   PTCLDY    48  46  93 CALM      30.07S
LONGMONT       PTCLDY    46  43  91 W5        30.08S
$$

COZ041-046-047-076>085-087-088-271300-
...PIKES PEAK/PALMER DIVIDE AND SOUTHERN FOOTHILLS...

CITY           SKY/WX    TMP DP  RH WIND       PRES   REMARKS
COLO. SPRINGS  PTCLDY    47  42  83 E3        30.16R
A. F. ACADEMY  CLEAR     39  39  99 NW8       30.16R
ELLICOTT       CLEAR    N/A N/A N/A MISG      30.14S
FALCON         CLEAR     44  41  89 SW3       30.18S
FORT CARSON    NOT AVBL
LIMON          MOCLDY    49  46  90 S8        30.11R
MONUMENT HILL    N/A     43  39  87 MISG      30.17R
TRINIDAD       CLEAR     49  42  77 CALM      30.14S
$$

COZ042>045-048>051-090-091-271300-
...NORTHEAST COLORADO...

CITY           SKY/WX    TMP DP  RH WIND       PRES   REMARKS
GREELEY ARPT   MOCLDY    48  45  87 CALM      30.07R
AKRON          CLOUDY    52  48  86 S8        30.06R
BURLINGTON     CLOUDY    56  49  77 S15       30.07R
WRAY           PTCLDY   N/A N/A N/A E7        30.05S
STERLING       CLOUDY    48  48 100 E5        30.03S
HOLYOKE        PTCLDY    54  50  87 SE6       30.06R
FORT MORGAN    CLOUDY    49  47  92 CALM      30.05S
$$

COZ086-089-092>099-271300-
...SOUTHEAST COLORADO...

CITY           SKY/WX    TMP DP  RH WIND       PRES   REMARKS
PUEBLO         CLEAR     48  47  96 SW5       30.10S
LA JUNTA       CLEAR     52  50  93 NW6       30.08S
LAMAR          PTCLDY    54  51  90 CALM      30.06R
SPRINGFIELD      N/A     49  47  93 CALM      30.11R
$$



USA.gov is the U.S. government's official web portal to all federal, state and local government web resources and services.